Weather History for Red Oak, IA

Change the Weather History Date:

Wednesday, January 16, 2013

  Actual Average Record
Temperature  
Mean Temperature 37 °F -  
Max Temperature 53 °F 32 °F 63 °F (1990)
Min Temperature 21 °F 11 °F -23 °F (1977)
Degree Days  
Heating Degree Days 28    
Moisture  
Dew Point 24 °F    
Average Humidity 61    
Maximum Humidity 81    
Minimum Humidity 41    
Precipitation  
Precipitation 0.00 in - - ()
Sea Level Pressure  
Sea Level Pressure 30.01 in    
Wind  
Wind Speed 8 mph (West)    
Max Wind Speed 16 mph    
Max Gust Speed 20 mph    
Visibility 10 miles    
Events      
Averages and records for this station are not official NWS values.
T = Trace of Precipitation, MM = Missing Value Source: NWS Daily Summary

Daily Weather History Graph

Daily Weather History Graph

Search for Another Location

Airport:

Trip Planner

Search our weather history database for the weather conditions in past years. The results will help you decide how hot, cold, wet, or windy it might be!

Date:

Astronomy

Jan. 16, 2013 Rise Set
Actual Time 7:43 AM CST 5:19 PM CST
Civil Twilight 7:13 AM CST 5:49 PM CST
Nautical Twilight 6:39 AM CST 6:23 PM CST
Astronomical Twilight 6:06 AM CST 6:55 PM CST
Moon 10:17 AM CST (1/16) 11:14 PM CST (1/16)
Length of Visible Light 10h 36m
Length of Day
9h 35m
Waxing Crescent, 28% of the Moon is Illuminated
Jan 16
Waxing Crescent
Jan 18
First Quarter
Jan 26
Full
Feb 3
Last Quarter
Feb 10
New

Hourly Weather History & Observations

Time (CST) Temp. Windchill Dew Point Humidity Pressure Visibility Wind Dir Wind Speed Gust Speed Precip Events Conditions
12:15 AM 21.2 °F 12.6 °F 12.2 °F 68% 30.06 in 10.0 mi SSW 6.9 mph - N/A   Clear
12:35 AM 21.2 °F 13.6 °F 12.2 °F 68% 30.06 in 10.0 mi SSW 5.8 mph - N/A   Clear
12:55 AM 21.2 °F 11.7 °F 12.2 °F 68% 30.05 in 10.0 mi South 8.1 mph - N/A   Clear
1:15 AM 21.2 °F 12.6 °F 12.2 °F 68% 30.04 in 10.0 mi South 6.9 mph - N/A   Clear
1:35 AM 21.2 °F 11.7 °F 12.2 °F 68% 30.03 in 10.0 mi South 8.1 mph - N/A   Clear
1:55 AM 21.2 °F 10.9 °F 12.2 °F 68% 30.03 in 10.0 mi South 9.2 mph - N/A   Clear
2:35 AM 21.2 °F 10.9 °F 14.0 °F 74% 30.02 in 10.0 mi South 9.2 mph - N/A   Clear
2:55 AM 21.2 °F 9.5 °F 14.0 °F 74% 30.00 in 10.0 mi South 11.5 mph - N/A   Clear
3:15 AM 21.2 °F 11.7 °F 14.0 °F 74% 29.99 in 10.0 mi South 8.1 mph - N/A   Clear
3:35 AM 21.2 °F 12.6 °F 14.0 °F 74% 29.99 in 10.0 mi South 6.9 mph - N/A   Clear
3:55 AM 23.0 °F 13.1 °F 15.8 °F 74% 29.97 in 10.0 mi South 9.2 mph - N/A   Clear
4:15 AM 23.0 °F 13.9 °F 15.8 °F 74% 29.96 in 10.0 mi South 8.1 mph - N/A   Clear
4:35 AM 23.0 °F 14.7 °F 15.8 °F 74% 29.96 in 10.0 mi South 6.9 mph - N/A   Clear
4:55 AM 24.8 °F 16.9 °F 15.8 °F 69% 29.96 in 10.0 mi SSW 6.9 mph - N/A   Scattered Clouds
5:35 AM 24.8 °F 16.1 °F 17.6 °F 74% 29.93 in 10.0 mi SSW 8.1 mph - N/A   Mostly Cloudy
5:55 AM 26.6 °F 18.2 °F 17.6 °F 69% 29.93 in 10.0 mi SSW 8.1 mph - N/A   Mostly Cloudy
6:35 AM 28.4 °F 18.5 °F 17.6 °F 64% 29.93 in 10.0 mi SSW 11.5 mph - N/A   Overcast
6:55 AM 28.4 °F 21.2 °F 17.6 °F 64% 29.94 in 10.0 mi SSW 6.9 mph - N/A   Overcast
7:15 AM 28.4 °F 20.4 °F 17.6 °F 64% 29.94 in 10.0 mi SSW 8.1 mph - N/A   Overcast
7:35 AM 28.4 °F 22.2 °F 17.6 °F 64% 29.96 in 10.0 mi SW 5.8 mph - N/A   Overcast
7:55 AM 28.4 °F 21.2 °F 19.4 °F 69% 29.95 in 10.0 mi SW 6.9 mph - N/A   Overcast
8:15 AM 28.4 °F 23.3 °F 19.4 °F 69% 29.96 in 10.0 mi SW 4.6 mph - N/A   Overcast
8:35 AM 30.2 °F 24.3 °F 19.4 °F 64% 29.96 in 10.0 mi SW 5.8 mph - N/A   Overcast
8:55 AM 30.2 °F 23.4 °F 21.2 °F 69% 29.96 in 10.0 mi SW 6.9 mph - N/A   Scattered Clouds
9:15 AM 33.8 °F 26.4 °F 21.2 °F 60% 29.96 in 10.0 mi SW 9.2 mph - N/A   Mostly Cloudy
9:35 AM 33.8 °F 26.4 °F 21.2 °F 60% 29.96 in 10.0 mi WSW 9.2 mph - N/A   Mostly Cloudy
9:55 AM 35.6 °F 29.2 °F 23.0 °F 60% 29.96 in 10.0 mi West 8.1 mph - N/A   Clear
10:15 AM 37.4 °F 30.8 °F 24.8 °F 60% 29.96 in 10.0 mi WSW 9.2 mph - N/A   Clear
10:35 AM 39.2 °F 33.6 °F 24.8 °F 56% 29.96 in 10.0 mi WSW 8.1 mph - N/A   Mostly Cloudy
10:55 AM 39.2 °F 34.2 °F 24.8 °F 56% 29.96 in 10.0 mi West 6.9 mph - N/A   Mostly Cloudy
11:15 AM 42.8 °F 39.3 °F 26.6 °F 53% 29.96 in 10.0 mi WSW 5.8 mph - N/A   Scattered Clouds
11:35 AM 44.6 °F 39.7 °F 26.6 °F 49% 29.95 in 10.0 mi West 9.2 mph - N/A   Clear
11:55 AM 48.2 °F - 28.4 °F 46% 29.94 in 10.0 mi West 8.1 mph - N/A   Clear
12:15 PM 48.2 °F - 28.4 °F 46% 29.94 in 10.0 mi West 10.4 mph - N/A   Clear
12:35 PM 50.0 °F - 30.2 °F 47% 29.94 in 10.0 mi WNW 9.2 mph 19.6 mph N/A   Clear
12:55 PM 51.8 °F - 30.2 °F 44% 29.93 in 10.0 mi West 6.9 mph - N/A   Clear
1:15 PM 51.8 °F - 30.2 °F 44% 29.94 in 10.0 mi West 9.2 mph 18.4 mph N/A   Clear
1:35 PM 53.6 °F - 30.2 °F 41% 29.93 in 10.0 mi West 13.8 mph 17.3 mph N/A   Clear
2:15 PM 53.6 °F - 30.2 °F 41% 29.93 in 10.0 mi West 11.5 mph 18.4 mph N/A   Scattered Clouds
2:35 PM 53.6 °F - 30.2 °F 41% 29.94 in 10.0 mi West 13.8 mph 17.3 mph N/A   Clear
2:55 PM 53.6 °F - 30.2 °F 41% 29.95 in 10.0 mi West 11.5 mph - N/A   Clear
3:15 PM 53.6 °F - 30.2 °F 41% 29.96 in 10.0 mi West 8.1 mph - N/A   Clear
3:35 PM 53.6 °F - 30.2 °F 41% 29.96 in 10.0 mi WNW 13.8 mph - N/A   Clear
3:55 PM 53.6 °F - 30.2 °F 41% 29.97 in 10.0 mi West 16.1 mph - N/A   Clear
4:15 PM 51.8 °F - 30.2 °F 44% 29.97 in 10.0 mi West 10.4 mph - N/A   Scattered Clouds
4:35 PM 51.8 °F - 30.2 °F 44% 29.98 in 10.0 mi West 10.4 mph - N/A   Clear
4:55 PM 48.2 °F - 30.2 °F 50% 29.99 in 10.0 mi West 6.9 mph - N/A   Clear
5:15 PM 46.4 °F 44.3 °F 30.2 °F 53% 30.00 in 10.0 mi WSW 4.6 mph - N/A   Scattered Clouds
5:55 PM 37.4 °F 32.1 °F 28.4 °F 70% 30.03 in 10.0 mi West 6.9 mph - N/A   Scattered Clouds
6:15 PM 42.8 °F 38.0 °F 30.2 °F 61% 30.04 in 10.0 mi WNW 8.1 mph - N/A   Clear
6:35 PM 44.6 °F 42.2 °F 30.2 °F 57% 30.05 in 10.0 mi WNW 4.6 mph - N/A   Scattered Clouds
6:55 PM 44.6 °F 40.2 °F 30.2 °F 57% 30.06 in 10.0 mi NW 8.1 mph - N/A   Scattered Clouds
7:15 PM 44.6 °F 39.2 °F 30.2 °F 57% 30.07 in 10.0 mi NW 10.4 mph - N/A   Scattered Clouds
7:35 PM 42.8 °F 37.0 °F 30.2 °F 61% 30.09 in 10.0 mi NW 10.4 mph - N/A   Clear
7:55 PM 42.8 °F 37.0 °F 30.2 °F 61% 30.10 in 10.0 mi NW 10.4 mph - N/A   Clear
8:15 PM 42.8 °F 38.0 °F 30.2 °F 61% 30.12 in 10.0 mi NNW 8.1 mph - N/A   Scattered Clouds
8:35 PM 44.6 °F 39.7 °F 32.0 °F 61% 30.13 in 10.0 mi NNW 9.2 mph - N/A   Overcast
8:55 PM 42.8 °F 37.5 °F 30.2 °F 61% 30.14 in 10.0 mi NNW 9.2 mph - N/A   Mostly Cloudy
9:15 PM 42.8 °F 37.5 °F 30.2 °F 61% 30.15 in 10.0 mi NNW 9.2 mph - N/A   Mostly Cloudy
9:35 PM 41.0 °F 34.7 °F 30.2 °F 65% 30.15 in 10.0 mi North 10.4 mph - N/A   Scattered Clouds
9:55 PM 37.4 °F 32.8 °F 30.2 °F 75% 30.17 in 10.0 mi North 5.8 mph - N/A   Clear
10:15 PM 39.2 °F 35.0 °F 30.2 °F 70% 30.17 in 10.0 mi North 5.8 mph - N/A   Clear
10:35 PM 35.6 °F 29.9 °F 28.4 °F 75% 30.17 in 10.0 mi North 6.9 mph - N/A   Clear
10:55 PM 37.4 °F 30.8 °F 30.2 °F 75% 30.19 in 10.0 mi North 9.2 mph - N/A   Clear
11:15 PM 35.6 °F 28.6 °F 30.2 °F 81% 30.20 in 10.0 mi North 9.2 mph - N/A   Clear
11:35 PM 35.6 °F 29.2 °F 28.4 °F 75% 30.21 in 10.0 mi North 8.1 mph - N/A   Clear
11:55 PM 35.6 °F 27.1 °F 28.4 °F 75% 30.22 in 10.0 mi North 12.7 mph - N/A   Mostly Cloudy